Temp
6 6 6 6 6 6 7 9 10 10 10 10 10 10 10 11 13 12 10 18 17 17 17 17 18 18 18 17 18 14 13 13 16 17 19 22 23 23 25 26 26 23 22 22 19
6 6 6 6 7 8 9 10 10 10 10 10 10 10 9 10 11 9 18 17 17 17 17 17 16 17 14 17 16 14 11 14 15 17 20 20 21 22 23 24 24 20 21 20 19
6 6 6 7 8 9 11 11 11 10 10 10 10 9 7 9 9 15 17 17 16 16 17 17 17 17 17 17 16 14 14 14 18 19 19 19 19 22 23 22 24 21 19 19 18
6 7 9 9 10 11 11 11 11 11 10 10 10 7 7 9 18 17 17 17 16 17 17 16 16 16 16 16 16 16 15 17 18 20 19 19 20 20 21 22 23 21 20 19 19
8 8 9 10 10 11 11 11 11 10 10 9 9 9 8 9 11 17 17 17 17 16 16 15 16 15 15 15 16 16 16 16 17 16 17 17 17 18 19 21 22 22 19 19 19
8 9 10 10 11 11 11 11 11 10 10 9 9 8 8 12 15 16 16 16 16 15 15 15 15 15 16 16 16 16 16 15 15 17 17 17 17 19 20 21 21 22 19 19 19
9 10 10 10 11 10 10 11 11 11 10 9 9 8 7 10 14 14 15 15 15 16 15 16 17 17 15 15 15 15 14 14 15 16 17 18 18 19 20 21 20 21 20 19 19
9 10 10 10 10 10 11 11 12 11 10 9 8 8 8 14 14 15 15 16 17 16 16 18 17 15 15 15 13 14 14 13 14 14 16 18 17 19 20 20 19 19 19 19 19
9 10 10 10 10 11 11 12 12 12 10 9 8 8 10 14 15 15 15 14 16 17 17 17 17 15 14 11 11 11 10 12 14 16 17 16 16 18 17 18 18 18 18 19 18
10 10 10 10 10 11 12 11 11 10 9 9 9 9 12 12 14 13 14 16 14 15 15 14 13 12 10 10 10 10 10 10 12 15 16 14 14 15 16 16 17 16 16 18 18
10 10 10 10 11 11 13 11 8 8 10 10 9 10 11 13 13 12 13 14 14 14 13 13 11 10 11 11 12 12 11 10 12 13 14 13 13 14 15 15 15 15 15 17 17
10 10 10 10 10 11 11 8 9 8 7 10 10 10 13 13 12 11 13 11 11 10 10 10 10 13 12 12 13 12 12 12 12 13 13 13 13 14 14 16 15 15 14 17 17
10 10 10 10 11 11 9 9 9 9 7 10 12 12 11 12 10 10 11 10 10 10 10 9 10 12 12 12 12 12 12 12 12 13 13 13 13 15 16 15 16 16 15 16 17
10 10 11 11 11 9 9 9 9 10 8 11 11 11 11 11 10 11 11 10 10 9 10 9 11 11 11 11 13 12 13 13 13 13 11 13 12 15 15 15 16 16 15 15 16
10 10 10 10 10 9 9 10 10 9 5 10 10 12 10 9 9 10 11 9 8 8 9 9 9 10 10 11 13 13 14 14 14 13 12 13 12 15 15 15 15 16 15 15 16
11 10 11 10 9 9 9 10 9 5 2 9 10 9 8 9 9 9 10 8 7 7 8 8 9 8 9 12 13 14 13 12 12 11 10 13 12 14 15 16 16 17 17 15 16
11 11 11 10 8 10 10 8 4 0 8 8 8 8 8 7 8 8 7 6 4 3 5 6 7 8 9 10 12 13 11 9 9 11 11 14 13 15 15 16 17 17 16 15 16
11 11 12 11 11 10 9 4 0 6 7 9 8 8 7 7 7 7 6 5 3 4 3 3 4 7 8 9 11 11 10 9 11 12 12 15 13 15 16 15 13 14 14 15 15
11 12 12 12 12 11 3 -1 2 7 8 8 8 7 7 7 6 6 6 4 3 5 4 5 6 9 8 7 12 11 10 12 11 11 11 12 15 16 14 14 13 13 13 12 15
11 10 10 12 12 10 4 6 7 8 9 8 6 7 6 5 5 5 5 3 6 7 6 6 4 8 8 7 10 11 12 10 10 10 11 13 14 12 12 13 12 12 12 12 12
11 5 10 12 11 3 1 6 8 9 8 7 6 6 5 4 5 4 5 5 5 6 6 4 5 7 8 8 9 9 10 11 11 12 12 12 11 12 11 12 11 12 12 12 13
7 3 10 11 3 1 4 7 9 8 7 6 6 5 4 4 5 4 5 5 7 6 5 4 5 5 7 9 10 9 10 11 10 11 11 11 10 11 10 10 10 10 11 11 14
3 3 10 10 0 1 5 6 7 7 6 6 6 5 4 4 4 5 6 7 6 6 4 4 5 6 9 9 10 9 10 12 12 11 11 8 9 11 9 9 9 9 9 11 15
1 0 1 1 1 4 5 5 5 7 7 6 5 5 4 5 5 6 6 7 6 6 5 4 5 5 6 6 7 6 7 10 11 10 10 9 10 9 7 7 7 8 8 10 13
0 1 2 -0 2 3 5 5 5 5 6 6 5 6 5 5 5 4 4 4 4 5 4 4 5 5 5 7 6 5 5 6 6 7 8 8 8 6 6 6 6 7 7 9 10
1 1 1 2 3 3 3 4 4 4 5 4 4 5 4 5 6 5 5 4 4 4 4 4 5 6 6 7 7 6 5 6 5 4 5 7 6 6 5 6 5 5 6 7 7
4 4 1 2 3 3 3 4 4 4 5 6 4 3 4 5 5 5 6 4 3 4 4 4 5 6 7 7 9 6 4 4 4 4 4 4 4 4 5 5 5 4 5 5 6
Height
816 815 813 812 810 808 806 805 803 801 800 798 796 793 789 785 781 778 776 772 771 772 774 774 774 774 775 777 778 784 809 815 801 798 788 772 772 765 759 762 759 763 763 762 775
816 813 812 811 809 806 805 804 803 801 799 797 795 792 789 785 780 774 769 770 772 773 773 774 775 775 780 779 781 790 812 801 789 783 779 776 775 772 767 765 767 770 762 763 774
815 812 811 809 807 805 804 803 802 800 799 797 794 791 789 786 784 770 767 769 772 773 774 774 774 775 779 779 781 788 795 787 779 776 775 777 777 769 768 769 764 769 764 763 770
813 811 809 807 806 804 802 801 800 799 798 796 794 791 789 788 783 770 770 771 773 774 775 774 775 778 782 784 779 785 781 775 774 770 774 775 769 769 768 765 759 762 763 761 767
812 810 808 806 804 802 801 799 798 798 797 796 794 792 791 791 781 773 772 773 774 775 775 776 777 778 781 780 778 781 778 774 772 774 774 771 772 770 763 761 757 759 765 766 763
811 809 807 805 803 801 799 797 796 795 795 795 794 793 794 791 776 773 774 774 775 775 775 775 775 775 777 778 780 776 775 776 773 773 772 772 766 765 757 754 757 757 762 762 764
810 808 806 804 801 799 798 795 793 793 793 793 793 793 795 785 777 775 776 776 775 775 774 774 773 774 776 779 776 775 780 777 772 772 772 766 762 753 754 752 755 755 757 760 760
809 807 805 802 800 798 796 793 789 787 788 791 792 793 789 779 778 778 777 772 772 772 773 771 772 773 775 776 781 780 780 786 773 771 767 769 760 751 750 752 757 756 756 756 756
808 806 804 802 799 797 794 791 786 783 786 789 792 793 787 779 780 779 777 774 769 768 769 769 770 774 777 789 795 794 799 789 781 768 766 770 760 753 755 755 756 754 754 754 754
807 805 804 801 798 795 792 791 789 788 790 791 793 795 785 786 781 781 775 769 766 765 767 770 774 779 788 793 798 798 797 794 784 774 770 776 766 766 761 757 757 756 756 751 753
807 805 803 800 796 794 792 791 795 794 792 794 799 797 791 785 782 781 775 768 767 769 775 771 779 781 783 781 779 781 785 789 786 777 779 777 772 766 762 756 757 755 754 749 748
807 805 802 798 796 795 793 795 801 803 803 794 795 796 790 788 786 786 781 783 782 787 782 784 779 771 770 773 774 777 778 774 779 778 781 778 766 758 757 751 750 751 750 745 744
808 805 801 798 796 796 797 800 799 799 807 798 795 796 797 791 796 794 789 789 787 787 785 789 776 771 771 772 771 770 772 774 778 775 773 773 764 756 747 744 741 738 738 737 736
808 805 800 797 799 797 797 798 797 797 806 803 802 803 800 793 794 795 793 794 791 787 785 779 768 768 771 768 763 764 761 765 767 772 783 766 769 750 744 740 736 733 734 732 731
809 806 803 800 800 798 798 796 796 798 843 810 808 804 804 806 805 798 794 793 793 791 787 775 771 771 769 765 759 753 754 757 760 763 771 767 773 742 739 740 733 730 729 726 724
810 807 803 801 798 796 793 794 796 821 862 815 809 809 807 804 802 798 795 795 791 791 780 774 769 771 762 753 752 750 755 758 762 767 775 756 770 738 736 731 727 722 720 718 717
810 808 803 800 799 793 792 794 824 868 823 821 814 809 806 806 801 800 799 800 810 814 790 777 762 754 753 748 741 744 757 775 776 764 759 745 757 729 724 723 720 716 715 713 709
812 808 805 801 796 792 792 811 869 837 828 816 812 806 808 804 803 800 801 803 803 805 804 796 781 757 747 745 731 734 751 763 752 746 742 734 741 719 720 724 725 720 716 712 706
813 810 806 804 799 793 804 862 861 833 823 820 811 810 807 804 807 805 801 806 805 793 801 788 766 746 745 744 725 734 747 738 749 752 749 734 724 720 724 725 725 721 713 710 703
813 812 810 809 804 800 816 830 829 823 819 816 820 812 811 812 810 809 804 805 794 788 788 785 780 745 741 738 722 728 731 752 755 753 750 724 723 734 731 728 727 722 711 703 699
815 821 818 813 811 817 846 833 825 819 819 819 819 819 817 817 809 811 804 797 792 787 787 792 785 749 740 734 732 740 737 735 735 736 732 728 742 742 741 736 732 722 707 700 689
820 838 822 817 832 843 841 832 825 822 822 824 823 824 824 818 813 813 806 801 788 788 792 792 784 771 747 733 731 734 731 728 743 739 735 730 745 745 744 741 736 725 704 691 676
831 835 827 820 858 854 838 833 829 826 826 825 823 821 821 822 815 806 801 790 789 787 792 791 780 770 741 738 730 735 730 722 722 729 732 760 755 744 748 744 735 723 709 692 669
833 855 841 838 846 843 842 841 837 827 825 825 826 821 821 815 810 803 801 791 792 789 791 793 788 781 776 767 763 764 755 738 728 741 746 758 748 747 753 750 739 724 715 706 689
836 853 852 867 853 848 844 846 841 836 828 827 823 818 816 815 811 810 806 800 796 794 796 795 788 784 782 772 771 774 779 778 775 774 766 770 759 772 769 754 750 740 731 719 710
842 850 851 857 853 851 852 849 846 842 836 833 831 818 818 813 811 806 805 802 802 795 794 791 783 778 773 768 766 778 790 785 788 793 788 777 775 780 775 767 759 750 739 732 725
836 839 846 860 858 855 860 853 845 844 832 827 827 824 817 810 808 806 803 805 806 799 797 791 788 778 777 772 756 774 811 808 812 809 804 797 801 789 775 770 767 760 754 745 735
Wind_Speed
10 10 11 12 12 12 12 12 13 14 15 15 17 19 21 23 25 19 7 5 2 8 4 5 4 3 3 2 2 4 4 4 6 6 5 4 2 5 4 4 2 2 7 12 30
11 11 12 13 13 13 13 12 13 13 14 16 18 20 20 21 23 15 12 8 6 5 2 2 2 2 2 2 1 4 4 10 7 6 3 4 3 5 4 5 2 3 5 30 32
11 12 12 13 14 14 13 12 13 13 14 17 19 19 17 16 5 5 4 12 8 3 2 1 2 2 2 1 3 5 7 5 4 4 3 3 6 4 4 6 6 5 11 20 30
12 13 13 14 14 14 13 13 13 14 14 17 18 17 13 5 3 5 4 10 6 4 3 2 2 4 4 5 3 2 7 5 2 3 2 5 4 6 6 6 11 9 17 21 25
13 14 14 15 15 15 14 14 14 15 14 15 16 12 5 3 7 5 6 8 8 4 4 3 3 4 5 3 1 4 4 5 7 5 6 7 8 8 11 7 10 5 15 18 22
14 14 14 15 15 15 14 14 16 16 13 11 12 5 2 3 7 9 8 10 6 7 3 5 5 4 2 3 4 2 3 6 5 2 4 7 9 3 3 2 9 7 16 18 20
14 14 15 15 14 14 15 18 18 16 12 8 6 2 0 9 10 4 7 6 9 11 3 7 4 2 2 2 3 3 6 7 3 5 6 2 16 18 7 6 8 7 14 15 20
15 14 13 13 14 16 17 18 21 19 13 3 0 2 6 3 13 3 13 22 20 20 19 13 7 3 4 1 6 4 1 3 5 4 5 10 20 5 5 5 9 7 10 15 16
13 13 13 14 16 15 17 17 11 6 5 6 4 2 7 11 8 9 21 10 19 17 18 15 3 5 3 5 4 3 5 4 6 2 1 7 10 5 6 8 10 9 9 14 13
12 13 15 16 16 15 12 4 10 10 10 6 1 2 5 8 16 23 28 17 8 4 2 5 2 4 2 4 7 5 5 5 4 4 3 8 17 7 9 10 9 10 8 10 14
12 14 16 17 12 11 9 2 6 4 5 2 1 3 6 25 21 23 33 10 9 5 1 4 5 8 10 8 7 3 5 8 2 6 5 6 13 11 8 11 9 10 7 10 14
13 14 16 16 8 10 16 6 2 4 5 8 3 3 9 16 6 18 29 9 6 4 7 5 10 5 8 11 12 9 15 19 7 8 8 12 19 16 10 11 10 10 9 11 13
14 15 17 4 13 5 12 9 6 4 3 4 2 14 15 13 4 12 12 6 2 4 5 6 5 11 8 9 13 16 18 13 12 7 9 8 16 13 9 8 9 9 8 13 17
13 17 22 6 2 11 1 12 6 5 3 5 8 6 11 10 3 9 14 5 4 5 9 11 6 2 6 8 13 19 14 16 15 8 6 6 7 6 5 9 9 9 9 14 14
12 16 15 14 4 2 8 8 4 3 4 7 4 5 9 7 8 8 12 5 6 8 5 9 11 14 16 14 9 15 13 15 12 11 6 9 6 3 7 8 10 7 10 13 16
12 16 18 9 11 10 7 3 2 5 1 4 2 8 11 4 5 7 4 3 5 5 9 15 9 9 19 16 16 7 2 4 3 3 7 15 7 12 13 12 7 7 8 12 15
13 17 23 13 11 8 0 3 5 7 6 8 11 8 16 4 9 6 5 6 1 5 7 20 5 5 17 19 16 12 7 4 4 8 7 10 8 20 5 7 12 14 10 10 13
14 24 26 28 23 4 3 6 11 6 5 9 11 15 10 5 6 12 6 8 3 5 5 4 9 4 6 14 18 18 13 5 7 8 10 14 7 12 2 9 9 7 6 8 11
13 29 30 26 19 16 6 7 6 4 5 6 11 11 10 3 7 5 2 5 5 3 2 6 8 15 14 13 19 13 11 13 4 2 5 4 5 1 10 12 15 14 12 9 12
3 7 28 20 19 12 6 8 3 4 6 5 5 4 15 10 7 5 3 4 4 4 2 4 10 5 12 8 4 9 11 7 5 4 5 4 3 4 12 16 17 16 14 14 14
4 4 25 20 7 6 5 3 3 6 8 5 7 8 7 4 3 3 5 7 4 5 1 2 4 11 9 2 3 5 5 5 5 4 3 3 3 8 11 14 17 18 16 16 14
5 4 24 6 5 2 4 4 7 6 5 4 4 2 2 5 3 2 4 3 9 3 4 3 4 5 6 15 6 2 8 4 5 9 5 3 4 11 14 15 17 17 20 22 12
3 1 20 13 3 4 4 5 3 6 4 5 4 1 2 3 4 4 5 3 13 4 5 5 3 6 4 4 6 6 7 3 1 3 4 4 3 12 17 18 19 20 22 25 3
3 3 4 5 0 3 3 6 9 7 4 3 4 6 3 3 4 5 8 7 13 6 12 7 3 3 5 7 8 13 26 20 6 3 3 5 8 19 23 19 21 23 24 22 19
4 1 3 3 5 6 4 6 8 6 3 8 4 10 6 3 3 4 5 6 6 6 3 2 3 1 13 15 29 26 26 23 24 17 7 8 8 17 21 20 19 17 20 19 20
4 4 3 2 3 5 8 4 4 8 3 8 7 17 2 3 5 5 6 3 4 3 2 2 4 3 3 6 26 26 23 25 21 24 9 9 13 21 18 11 19 22 21 20 18
5 4 5 5 4 4 5 5 6 6 5 5 9 4 6 3 12 9 4 5 4 9 2 2 2 2 3 9 5 21 21 12 12 14 14 15 15 18 18 13 12 21 19 18 18
Wind_Direction
344 342 339 335 332 331 332 333 338 343 344 341 338 333 330 326 319 317 253 242 174 180 229 295 262 170 127 93 128 126 78 205 225 159 240 296 9 310 270 227 106 171 161 155 150
338 338 334 329 328 330 331 334 336 338 339 337 335 329 329 333 326 291 279 192 155 156 210 160 89 96 81 184 147 120 145 219 203 188 239 292 321 314 292 289 62 2 48 135 148
335 332 330 327 327 328 327 327 331 331 333 335 333 331 329 337 322 267 356 162 154 196 219 164 114 92 135 151 202 179 199 201 222 194 214 249 300 228 273 293 250 202 165 151 155
335 332 330 328 326 326 324 323 327 329 330 336 336 332 334 345 308 348 145 153 166 187 262 163 120 132 165 201 218 222 242 213 229 222 277 261 256 258 219 252 285 155 182 166 171
334 332 328 327 325 325 323 321 321 325 325 333 336 336 359 2 257 338 174 167 168 217 233 199 169 157 179 204 275 197 255 258 272 307 265 269 250 248 272 248 272 175 175 184 183
335 331 331 328 326 325 324 320 318 321 325 329 334 346 48 286 332 312 194 173 208 218 225 210 204 204 223 239 177 259 281 274 286 271 272 282 275 207 3 265 253 189 185 191 190
337 336 335 333 331 331 329 323 319 317 315 318 326 20 321 244 7 95 190 236 273 239 219 231 238 132 94 329 324 314 332 323 219 187 234 49 287 243 205 258 254 209 186 190 196
340 341 343 342 338 334 333 328 316 298 285 277 191 138 250 317 337 247 289 283 276 259 250 256 220 142 157 257 7 6 264 329 305 142 229 136 259 81 178 252 267 248 196 203 203
350 353 350 346 340 339 337 336 340 348 130 138 134 145 284 336 0 351 6 298 293 255 247 261 188 190 112 98 359 1 249 231 328 277 153 187 275 299 342 289 271 265 210 202 205
360 356 353 347 341 351 342 60 60 72 91 100 20 326 359 317 320 13 5 339 243 261 297 176 202 179 104 125 229 197 237 244 205 325 250 258 270 295 295 291 262 263 238 203 191
5 356 355 348 351 27 5 31 17 346 52 341 16 337 291 332 63 16 8 351 5 41 349 282 205 210 207 203 196 205 257 256 121 285 318 256 278 281 258 268 268 272 226 209 200
3 3 357 356 69 60 66 79 81 240 337 344 188 240 355 324 356 12 17 29 7 342 320 327 262 265 211 210 223 220 245 259 276 237 253 275 272 272 250 253 241 238 228 210 206
15 9 359 47 78 43 54 41 351 150 104 317 79 24 23 334 62 359 16 331 305 285 285 251 264 299 271 259 227 227 231 243 248 253 249 267 278 270 267 237 250 231 219 209 205
26 25 28 51 55 355 35 349 9 179 95 21 10 18 356 323 68 0 11 345 307 293 320 276 245 259 309 275 237 236 220 239 248 248 237 138 282 255 258 264 241 242 216 207 212
30 20 14 30 331 343 311 328 355 144 90 360 15 333 337 60 271 355 18 336 286 291 271 248 276 269 272 261 271 252 236 237 246 246 246 258 261 291 203 251 254 256 242 217 212
25 12 6 356 336 323 298 305 105 46 281 343 310 317 349 328 324 313 320 19 269 278 273 269 277 244 237 226 244 218 335 318 253 198 231 245 199 271 248 244 262 247 236 222 220
25 28 28 17 327 352 82 63 44 79 311 331 317 316 326 289 328 341 323 330 235 348 309 310 245 272 221 228 213 202 162 220 223 227 243 220 207 246 270 236 240 257 252 231 221
40 33 29 19 4 11 77 60 64 262 269 277 293 301 294 302 304 316 321 319 270 221 289 299 317 16 339 239 203 177 184 182 211 216 226 208 200 234 220 352 358 332 322 291 220
57 39 29 20 17 33 70 52 181 243 275 293 302 283 288 295 325 312 281 257 238 193 283 305 284 309 293 282 211 187 195 215 327 232 286 192 193 29 12 352 343 329 326 300 272
20 23 12 27 23 44 65 102 177 227 291 291 302 304 310 313 308 355 301 255 279 252 155 291 296 297 310 243 185 172 175 168 197 217 235 185 175 50 0 337 332 319 322 313 314
43 46 360 20 33 44 72 54 333 316 339 332 314 315 317 302 316 301 263 285 249 287 319 295 263 298 309 11 135 155 178 210 134 147 283 147 91 9 354 336 322 320 321 314 285
73 50 360 71 48 32 41 10 316 315 22 352 314 307 283 294 298 269 275 251 313 330 321 238 280 291 293 301 291 233 191 204 135 163 239 146 143 23 5 341 339 331 340 329 255
82 74 33 44 68 360 332 353 324 339 337 357 309 26 246 271 301 242 270 304 348 334 1 359 320 315 346 25 26 35 0 159 96 41 7 91 319 6 357 347 342 350 352 344 313
87 39 336 41 347 110 40 1 344 321 300 307 270 294 278 251 239 287 308 313 338 35 18 352 303 320 33 38 59 52 39 32 64 37 83 29 341 6 344 344 347 357 355 350 359
40 219 193 356 356 35 51 346 340 337 316 349 313 335 313 297 278 274 270 278 313 348 359 292 272 209 60 67 65 56 44 41 47 15 51 347 14 4 340 345 352 350 350 356 2
115 122 19 18 2 26 17 326 324 323 300 335 338 323 290 280 327 306 337 340 326 302 299 294 357 115 118 79 59 51 32 38 33 21 19 360 14 343 331 335 0 354 349 353 355
69 87 102 358 354 45 341 298 291 321 287 279 309 301 322 282 311 268 199 261 260 8 301 294 293 285 8 339 307 36 8 25 28 28 13 21 333 332 337 331 1 355 347 343 351